Weather History for KGRD - December, 2012

Change the Weather History Date:

Monday, December 3, 2012

  Actual Average (KAND) Record (KAND)
Temperature  
Mean Temperature 58 °F -  
Max Temperature 73 °F 57 °F 76 °F (1970)
Min Temperature 42 °F 36 °F 22 °F (1979)
Degree Days  
Heating Degree Days 8    
Growing Degree Days 8 (Base 50)    
Moisture  
Dew Point 47 °F    
Average Humidity 90    
Maximum Humidity 100    
Minimum Humidity 42    
Precipitation  
Precipitation 0.00 in - - ()
Sea Level Pressure  
Sea Level Pressure 30.31 in    
Wind  
Wind Speed 1 mph (SSW)    
Max Wind Speed 12 mph    
Max Gust Speed 16 mph    
Visibility 4 miles    
Events Fog    
Averages and records for this station are not official NWS values.
T = Trace of Precipitation, MM = Missing Value Source: NWS Daily Summary

Daily Weather History Graph

Daily Weather History Graph

Search for Another Location

Airport or City:

Trip Planner

Search our weather history database for the weather conditions in past years. The results will help you decide how hot, cold, wet, or windy it might be!

Date:

Astronomy

Dec. 03, 2012 Rise Set
Actual Time 7:18 AM EST 5:18 PM EST
Civil Twilight 6:51 AM EST 5:46 PM EST
Nautical Twilight 6:19 AM EST 6:17 PM EST
Astronomical Twilight 5:49 AM EST 6:47 PM EST
Moon 9:57 PM EST 10:47 AM EST
Length of Visible Light 10h 55m
Length of Day
10h 00m
Waning Gibbous, 78% of the Moon is Illuminated
Dec 3
Waning Gibbous
Dec 6
Last Quarter
Dec 13
New
Dec 20
First Quarter
Dec 28
Full

Hourly Weather History & Observations

Time (EST) Temp. Windchill Dew Point Humidity Pressure Visibility Wind Dir Wind Speed Gust Speed Precip Events Conditions
12:56 AM 46.9 °F - 46.0 °F 97% 30.30 in 7.0 mi Calm Calm - N/A   Clear
1:56 AM 45.0 °F - 45.0 °F 100% 30.30 in 8.0 mi Calm Calm - N/A   Clear
2:56 AM 45.0 °F - 43.0 °F 93% 30.30 in 9.0 mi Calm Calm - N/A   Clear
3:35 AM 44.6 °F - 42.8 °F 93% 30.31 in 9.0 mi Calm Calm - N/A   Scattered Clouds
3:44 AM 44.6 °F - 42.8 °F 93% 30.31 in 1.0 mi Calm Calm - N/A   Mist
3:50 AM 44.6 °F - 42.8 °F 93% 30.31 in 0.2 mi Calm Calm - N/A Fog Fog
3:51 AM 44.1 °F - 43.0 °F 96% 30.30 in 0.2 mi Calm Calm - N/A Fog Fog
4:00 AM 44.6 °F - 44.6 °F 100% 30.31 in 0.5 mi Calm Calm - N/A Fog Fog
4:10 AM 42.8 °F - 42.8 °F 100% 30.31 in 2.0 mi Calm Calm - N/A   Overcast
4:17 AM 42.8 °F - 42.8 °F 100% 30.31 in 7.0 mi Calm Calm - N/A   Overcast
4:31 AM 44.6 °F - 42.8 °F 93% 30.30 in 1.2 mi Calm Calm - N/A   Overcast
4:36 AM 44.6 °F - 42.8 °F 93% 30.30 in 0.2 mi Calm Calm - N/A Fog Fog
4:45 AM 46.4 °F - 44.6 °F 93% 30.30 in 0.2 mi Calm Calm - N/A Fog Fog
4:56 AM 44.1 °F - 44.1 °F 100% 30.30 in 0.2 mi Calm Calm - N/A Fog Fog
5:03 AM 44.6 °F - 44.6 °F 100% 30.30 in 1.0 mi Calm Calm - N/A   Mist
5:07 AM 44.6 °F - 44.6 °F 100% 30.30 in 3.0 mi Calm Calm - N/A   Mostly Cloudy
5:19 AM 42.8 °F 41.1 °F 42.8 °F 100% 30.30 in 1.2 mi South 3.5 mph - N/A   Mostly Cloudy
5:23 AM 44.6 °F 43.1 °F 42.8 °F 93% 30.30 in 0.2 mi SW 3.5 mph - N/A Fog Fog
5:51 AM 44.6 °F - 44.6 °F 100% 30.31 in 0.5 mi Calm Calm - N/A Fog Fog
5:54 AM 46.4 °F - 46.4 °F 100% 30.31 in 1.0 mi Calm Calm - N/A   Mist
5:56 AM 46.0 °F - 45.0 °F 96% 30.31 in 2.5 mi Calm Calm - N/A   Mostly Cloudy
5:58 AM 44.6 °F 43.1 °F 44.6 °F 100% 30.31 in 4.0 mi SW 3.5 mph - N/A   Scattered Clouds
6:02 AM 46.4 °F 45.2 °F 44.6 °F 93% 30.31 in 0.8 mi SSW 3.5 mph - N/A   Mist
6:21 AM 48.2 °F - 46.4 °F 93% 30.31 in 1.2 mi SSW 3.5 mph - N/A   Partly Cloudy
6:31 AM 46.4 °F 45.2 °F 46.4 °F 100% 30.32 in 5.0 mi SSW 3.5 mph - N/A   Partly Cloudy
6:38 AM 46.4 °F - 44.6 °F 93% 30.32 in 1.5 mi Calm Calm - N/A   Partly Cloudy
6:40 AM 46.4 °F - 46.4 °F 100% 30.32 in 0.8 mi Calm Calm - N/A   Mist
6:56 AM 45.0 °F 42.6 °F 45.0 °F 100% 30.33 in 0.8 mi SSW 4.6 mph - N/A   Mist
7:00 AM 44.6 °F 42.2 °F 44.6 °F 100% 30.33 in 2.0 mi SSW 4.6 mph - N/A   Mostly Cloudy
7:06 AM 46.4 °F 44.3 °F 44.6 °F 93% 30.33 in 3.0 mi SSW 4.6 mph - N/A   Scattered Clouds
7:08 AM 48.2 °F - 46.4 °F 93% 30.33 in 1.8 mi SSW 4.6 mph - N/A   Scattered Clouds
7:15 AM 50.0 °F - 50.0 °F 100% 30.33 in 0.8 mi SSW 4.6 mph - N/A   Mist
7:27 AM 46.4 °F 45.2 °F 46.4 °F 100% 30.33 in 0.2 mi SSW 3.5 mph - N/A Fog Fog
7:34 AM 44.6 °F - 44.6 °F 100% 30.33 in 0.2 mi Calm Calm - N/A Fog Fog
7:56 AM 42.1 °F - 42.1 °F 100% 30.34 in 0.8 mi Calm Calm - N/A   Mist
7:58 AM 42.8 °F - 42.8 °F 100% 30.33 in 2.5 mi Calm Calm - N/A   Overcast
8:05 AM 42.8 °F - 42.8 °F 100% 30.33 in 8.0 mi Calm Calm - N/A   Overcast
8:23 AM 46.4 °F - 44.6 °F 93% 30.34 in 1.8 mi Calm Calm - N/A   Overcast
8:29 AM 46.4 °F - 46.4 °F 100% 30.34 in 0.5 mi Calm Calm - N/A Fog Fog
8:40 AM 48.2 °F - 48.2 °F 100% 30.34 in 2.0 mi Calm Calm - N/A   Mostly Cloudy
8:42 AM 48.2 °F - 48.2 °F 100% 30.34 in 3.0 mi Calm Calm - N/A   Scattered Clouds
9:56 AM 62.1 °F - 55.9 °F 80% 30.34 in 10.0 mi SW 5.8 mph - N/A   Clear
10:56 AM 66.0 °F - 55.9 °F 70% 30.34 in 10.0 mi West 4.6 mph - N/A   Clear
11:56 AM 69.1 °F - 55.0 °F 61% 30.31 in 10.0 mi SW 6.9 mph - N/A   Clear
12:56 PM 72.0 °F - 54.0 °F 53% 30.28 in 10.0 mi SSW 11.5 mph - N/A   Clear
1:56 PM 72.0 °F - 51.1 °F 48% 30.27 in 10.0 mi Variable 6.9 mph 16.1 mph N/A   Clear
2:56 PM 73.0 °F - 48.9 °F 42% 30.25 in 10.0 mi SSW 9.2 mph - N/A   Partly Cloudy
3:56 PM 73.0 °F - 51.1 °F 46% 30.25 in 10.0 mi South 9.2 mph - N/A   Mostly Cloudy
4:56 PM 69.1 °F - 52.0 °F 54% 30.26 in 10.0 mi SSW 3.5 mph - N/A   Mostly Cloudy
5:56 PM 64.0 °F - 52.0 °F 65% 30.27 in 10.0 mi South 4.6 mph - N/A   Clear
6:56 PM 61.0 °F - 53.1 °F 75% 30.28 in 10.0 mi Calm Calm - N/A   Clear
7:56 PM 59.0 °F - 53.1 °F 81% 30.29 in 10.0 mi Calm Calm - N/A   Clear
8:56 PM 55.9 °F - 52.0 °F 87% 30.28 in 10.0 mi Calm Calm - N/A   Clear
9:56 PM 53.1 °F - 50.0 °F 89% 30.29 in 10.0 mi South 4.6 mph - N/A   Clear
10:56 PM 54.0 °F - 51.1 °F 90% 30.29 in 10.0 mi South 3.5 mph - N/A   Clear
11:56 PM 54.0 °F - 50.0 °F 86% 30.29 in 10.0 mi SSW 4.6 mph - N/A   Partly Cloudy